[[{"header":{"parameterUnit":"m.s-1","parameterCategory":2,"la1":30.2991,"la2":30.254,"lo1":-89.0895,"lo2":-89.0444,"dy":0.0017,"dx":0.0017,"nx":28,"ny":28,"refTime":"2025-04-17T21:00:00:Z","depth":"0","parameterNumber":2,"parameterNumberName":"U-component_of_CURRENTS"},"data":[0,0,0,0,0,0,0,0,0,0,0,0,0,0,0,0,0,0,0,0,0,0,0,0,0,0,0,0,0,0,0,0,0,0,0,0,0,0,0,0,0,0,0,0,0,0,0,0,0,0,0,0,0,0,0,0,0,0,0.2581,0.2581,0,0.2602,0.2602,0.2602,0.2597,0.2596,0.2596,0.2596,0.2594,0.2595,0.2595,0,0,0,0,0,0,0,0,0,0,0,0,0,0.2557,0.2557,0.2581,0.2581,0.2582,0.2602,0.2602,0.2603,0.2597,0.2596,0.2596,0.2596,0.2594,0.2595,0.2595,0,0,0,0,0,0,0,0,0,0,0,0,0,0.257,0.2557,0.2581,0.2582,0.2583,0.2602,0.2602,0.2603,0.2597,0.2596,0.2596,0.2595,0.2594,0.2595,0.2595,0.2606,0,0,0.2596,0.2596,0,0,0,0,0,0,0,0,0.257,0.2571,0.2582,0.2582,0.2583,0.2598,0.2594,0.2603,0.2597,0.259,0.2596,0.2595,0.2595,0.2595,0.2598,0.2606,0.2606,0.2596,0.2596,0.2597,0.2597,0,0,0,0,0,0,0,0.2569,0.257,0.2588,0.2582,0.2583,0.259,0.2591,0.2595,0.2593,0.259,0.259,0.2595,0.2595,0.2598,0.2598,0.2606,0.2596,0.2596,0.2597,0.2597,0.2648,0.2649,0,0,0,0,0,0,0.2568,0.2569,0.2587,0.2589,0.2577,0.259,0.2592,0.2592,0.2593,0.2594,0.2596,0.2595,0.2597,0.2598,0.2598,0.2625,0.2597,0.2597,0.2597,0.2647,0.2648,0.2649,0,0,0,0,0,0,0.2568,0.257,0.2586,0.2581,0.2584,0.2591,0.2592,0.2593,0.2599,0.2598,0.2597,0.2601,0.2597,0.2597,0.2611,0.2624,0.2597,0.2597,0.2645,0.2647,0.2649,0.267,0,0,0,0,0,0,0.2567,0.2569,0.2571,0.2581,0.2584,0.26,0.2593,0.2594,0.2603,0.2602,0.2603,0.2602,0.2597,0.261,0.2611,0.2624,0.2598,0.2644,0.2646,0.2648,0.2668,0.2672,0.2676,0,0,0,0,0,0.2566,0.2571,0.2571,0.2574,0.2586,0.2601,0.2603,0.2606,0.2604,0.2609,0.2613,0.2602,0.2624,0.2611,0.2612,0.2626,0.2643,0.2645,0.2648,0.2666,0.2672,0.2676,0,0,0,0,0,0,0.2561,0.2571,0.2572,0.2579,0.259,0.2601,0.2608,0.2611,0.2618,0.2619,0.2614,0.2614,0.2633,0.2629,0.2615,0.2649,0.2633,0.2636,0.2647,0.2652,0.2656,0.2677,0.2598,0,0,0,0,0,0.2562,0.2567,0.2579,0.2585,0.2592,0.2601,0.2608,0.2612,0.2621,0.2624,0.2623,0.263,0.2645,0.2647,0.2657,0.2671,0.2712,0.2683,0.2687,0.269,0.271,0.2783,0.2796,0.2658,0.2657,0.2657,0,0,0.2562,0.2569,0.2571,0.2585,0.2593,0.2609,0.2603,0.2618,0.2633,0.2623,0.2638,0.2645,0.2654,0.2673,0.2681,0.267,0.2754,0.2694,0.2696,0.2715,0.2787,0.2801,0.2813,0.2659,0.2659,0.2659,0,0,0.2567,0.2571,0.2578,0.259,0.2607,0.2617,0.2623,0.2636,0.2643,0.266,0.2663,0.2683,0.2689,0.2707,0.2716,0.2751,0.2776,0.2748,0.278,0.285,0.2862,0.2873,0.2953,0.2972,0.2745,0.2745,0.2745,0,0.2568,0.2578,0.2584,0.2597,0.2612,0.2622,0.264,0.2652,0.2668,0.2688,0.2668,0.2718,0.2712,0.2762,0.2767,0.2761,0.281,0.2756,0.2856,0.2868,0.2879,0.2959,0.2978,0.2746,0.2746,0.2746,0.2746,0,0.2578,0.2591,0.2598,0.2619,0.2635,0.2653,0.2673,0.2693,0.2701,0.272,0.2765,0.2767,0.2806,0.2797,0.2788,0.2864,0.2878,0.2856,0.2844,0.2895,0.2975,0.2995,0.2748,0.2748,0.2747,0.2747,0,0,0.2568,0.26,0.2602,0.2621,0.265,0.2668,0.2701,0.2744,0.2793,0.2794,0.2867,0.2864,0.2881,0.2894,0.2891,0.2932,0.304,0.2925,0.2928,0.3006,0.3217,0.3152,0.3168,0.3037,0.304,0.3043,0.3245,0,0.2576,0.2606,0.262,0.2658,0.2678,0.2707,0.2748,0.2791,0.2828,0.2903,0.292,0.2984,0.2915,0.2954,0.2981,0.3046,0.3093,0.2988,0.3156,0.3162,0.3098,0.3189,0.3053,0.3215,0.3265,0.3269,0.3271,0,0.2576,0.2603,0.2633,0.2695,0.2709,0.2734,0.2819,0.2862,0.2962,0.3003,0.3062,0.3097,0.3177,0.3108,0.323,0.3171,0.3198,0.3223,0.3232,0.318,0.3134,0.317,0.325,0.3203,0.3302,0.33,0.3298,0,0.2561,0.2611,0.2637,0.2653,0.2723,0.2752,0.28,0.2889,0.295,0.309,0.3165,0.325,0.3323,0.337,0.3395,0.3343,0.3534,0.3473,0.3439,0.3436,0.3358,0.3341,0.3411,0.3561,0.3561,0.356,0.3559,0,0.2558,0.2582,0.2634,0.265,0.2709,0.276,0.2845,0.2913,0.3038,0.3132,0.3221,0.3313,0.3391,0.3488,0.3489,0.3541,0.3614,0.3483,0.3493,0.3361,0.3343,0.3325,0.3306,0.3568,0.3566,0.3564,0.3563,0,0.2533,0.256,0.2602,0.2675,0.2697,0.2744,0.2852,0.2925,0.3052,0.3189,0.3247,0.3412,0.3548,0.3608,0.3725,0.3667,0.3626,0.3708,0.3552,0.3537,0.3417,0.3404,0.3321,0.3219,0.373,0.373,0.373,0,0.2522,0.2539,0.2606,0.2633,0.2661,0.2736,0.2791,0.2914,0.2994,0.3224,0.3291,0.3487,0.3583,0.375,0.3725,0.3771,0.3642,0.3649,0.3497,0.3427,0.3422,0.3229,0.3135,0.3424,0.3421,0.3419,0.3417,0,0.2523,0.2542,0.2582,0.2627,0.2672,0.2723,0.2808,0.2867,0.3029,0.3153,0.3318,0.3427,0.3593,0.3596,0.366,0.3641,0.3476,0.3601,0.3579,0.3239,0.2988,0.2888,0.329,0.3397,0.3399,0.3401,0.3402,0.3403,0.2534,0.255,0.2596,0.2636,0.2673,0.2696,0.2726,0.2822,0.293,0.309,0.3243,0.3349,0.3456,0.3524,0.3498,0.3389,0.3331,0.3281,0.3295,0.3125,0.2931,0.3288,0.3355,0.3356,0.3358,0.3359,0.336,0,0.255,0.2567,0.2603,0.2634,0.265,0.2675,0.2729,0.2743,0.2824,0.2964,0.3091,0.3174,0.3202,0.3247,0.3207,0.3105,0.2907,0.3049,0.2778,0.2719,0.3113,0.3003,0.2933,0.2933,0.2933,0.2933,0.2933,0.2933,0.2568,0.2593,0.2597,0.2608,0.2618,0.2604,0.2614,0.2624,0.2677,0.2733,0.2766,0.2862,0.3018,0.3112,0.3033,0.2946,0.2727,0.2589,0.2598,0.2936,0.2958,0.2979,0.2871,0.2774,0.2774,0.2031,0.2026,0.2022]},{"header":{"parameterUnit":"m.s-1","parameterCategory":2,"la1":30.2991,"la2":30.254,"lo1":-89.0895,"lo2":-89.0444,"dy":0.0017,"dx":0.0017,"nx":28,"ny":28,"refTime":"2025-04-17T21:00:00:Z","depth":"0","parameterNumber":3,"parameterNumberName":"V-component_of_CURRENTS"},"data":[0,0,0,0,0,0,0,0,0,0,0,0,0,0,0,0,0,0,0,0,0,0,0,0,0,0,0,0,0,0,0,0,0,0,0,0,0,0,0,0,0,0,0,0,0,0,0,0,0,0,0,0,0,0,0,0,0,0,0.031,0.031,0,0.0289,0.0289,0.0288,0.0264,0.0264,0.0264,0.0264,0.0196,0.0194,0.0193,0,0,0,0,0,0,0,0,0,0,0,0,0,0.0289,0.029,0.0311,0.031,0.031,0.0289,0.0289,0.0288,0.0264,0.0264,0.0264,0.0263,0.0196,0.0194,0.0193,0,0,0,0,0,0,0,0,0,0,0,0,0,0.0286,0.029,0.0311,0.0296,0.0295,0.0289,0.0289,0.0288,0.0264,0.0264,0.0264,0.0263,0.0197,0.0195,0.0192,0.0186,0,0,0.0185,0.0184,0,0,0,0,0,0,0,0,0.0286,0.0286,0.0299,0.0297,0.0296,0.028,0.0256,0.0252,0.0265,0.0275,0.0264,0.0263,0.022,0.0216,0.0212,0.0183,0.018,0.0185,0.0184,0.0183,0.0182,0,0,0,0,0,0,0,0.0286,0.0287,0.0301,0.0298,0.0297,0.0277,0.0276,0.0255,0.0249,0.0274,0.0273,0.0272,0.0219,0.0215,0.0211,0.0179,0.0185,0.0183,0.0182,0.0181,0.0144,0.0144,0,0,0,0,0,0,0.0294,0.0288,0.0302,0.0301,0.0291,0.0278,0.0277,0.0285,0.025,0.0245,0.0272,0.0271,0.0219,0.0213,0.0208,0.0215,0.0183,0.018,0.0179,0.0143,0.0144,0.0144,0,0,0,0,0,0,0.0293,0.0295,0.0303,0.0293,0.0293,0.0279,0.0287,0.0284,0.0283,0.0249,0.0243,0.0274,0.0218,0.0211,0.0201,0.0211,0.0179,0.0177,0.0143,0.0143,0.0144,0.0218,0,0,0,0,0,0,0.0293,0.0296,0.0301,0.0294,0.0294,0.0309,0.0288,0.0284,0.0283,0.0281,0.0249,0.0242,0.0218,0.0205,0.0199,0.0207,0.0175,0.0142,0.0143,0.0144,0.0215,0.0221,0.0226,0,0,0,0,0,0.0292,0.0306,0.0302,0.0303,0.0303,0.031,0.0308,0.0295,0.0284,0.0291,0.027,0.0243,0.0205,0.0204,0.0196,0.0204,0.0142,0.0143,0.0144,0.0212,0.0219,0.0226,0,0,0,0,0,0,0.0299,0.0305,0.03,0.0314,0.0315,0.0306,0.0309,0.0301,0.029,0.0285,0.0252,0.0245,0.0238,0.0211,0.0211,0.0195,0.0167,0.0167,0.0221,0.0228,0.0233,0.0249,0.0174,0,0,0,0,0,0.0304,0.0316,0.0317,0.0327,0.033,0.032,0.0319,0.0313,0.0304,0.0299,0.0277,0.0252,0.0236,0.0225,0.0204,0.0198,0.0176,0.0197,0.0202,0.0207,0.0214,0.0193,0.0197,0.0147,0.0147,0.0147,0,0,0.0308,0.0313,0.0319,0.0329,0.0327,0.0343,0.0319,0.0325,0.0338,0.0292,0.0298,0.0272,0.0239,0.0235,0.0228,0.0214,0.0211,0.0208,0.0213,0.0217,0.0194,0.0199,0.0204,0.0148,0.0148,0.0148,0,0,0.0329,0.033,0.0349,0.0356,0.036,0.0358,0.0364,0.036,0.0357,0.0359,0.0331,0.0316,0.0288,0.0272,0.0258,0.0281,0.0242,0.0268,0.0309,0.0288,0.0292,0.0296,0.0282,0.0284,0.027,0.027,0.027,0,0.0334,0.0362,0.0354,0.0376,0.039,0.0371,0.04,0.0395,0.0388,0.0393,0.0369,0.0342,0.0307,0.0312,0.0314,0.0295,0.0278,0.0289,0.0297,0.03,0.0302,0.0287,0.0288,0.0274,0.0273,0.0273,0.0273,0,0.0373,0.0394,0.0407,0.0433,0.0445,0.0466,0.0465,0.0471,0.046,0.0455,0.0454,0.0412,0.0396,0.038,0.0351,0.0354,0.0335,0.0309,0.0284,0.0312,0.0294,0.0294,0.0279,0.0278,0.0277,0.0276,0,0,0.039,0.0428,0.0433,0.0463,0.0481,0.0501,0.0521,0.0542,0.0574,0.0538,0.0575,0.052,0.0493,0.0476,0.0437,0.0413,0.0407,0.0369,0.0366,0.0364,0.0368,0.0354,0.0351,0.0382,0.0382,0.0382,0.0353,0,0.0426,0.0487,0.0493,0.0553,0.059,0.0586,0.0621,0.0633,0.0633,0.0662,0.0608,0.0626,0.0532,0.0541,0.0492,0.0445,0.0408,0.0418,0.0335,0.0333,0.0322,0.0351,0.0359,0.0334,0.0353,0.0352,0.0352,0,0.0465,0.0508,0.0574,0.0641,0.0657,0.0688,0.0749,0.0779,0.0798,0.0802,0.0782,0.075,0.0716,0.0639,0.0534,0.0545,0.0455,0.0401,0.0398,0.0358,0.0317,0.0306,0.0332,0.0221,0.0351,0.0351,0.0351,0,0.0499,0.0564,0.0625,0.0646,0.0714,0.0745,0.0785,0.0821,0.0881,0.0904,0.0956,0.0877,0.0888,0.075,0.0609,0.0578,0.0502,0.0447,0.0343,0.0341,0.0319,0.0315,0.0234,0.0362,0.0362,0.0362,0.0362,0,0.0543,0.0592,0.0649,0.0686,0.0781,0.0806,0.091,0.0933,0.1009,0.1113,0.1037,0.1103,0.0917,0.0847,0.0671,0.0518,0.054,0.0361,0.0336,0.0345,0.0344,0.0221,0.0154,0.0361,0.0361,0.0361,0.0362,0,0.0576,0.0605,0.0687,0.0768,0.08,0.0874,0.1007,0.1097,0.1148,0.1286,0.1311,0.1293,0.1207,0.1006,0.0821,0.0637,0.0399,0.0404,0.0432,0.041,0.0195,0.0131,0.0003,-0.0065,0.0288,0.0287,0.0287,0,0.06,0.0645,0.075,0.0818,0.0858,0.0974,0.1076,0.116,0.1274,0.1413,0.15,0.1468,0.1464,0.1182,0.0859,0.0562,0.0412,0.0374,0.0301,0.0196,0.0106,0.0045,-0.0008,0.0302,0.0302,0.0302,0.0301,0,0.0665,0.0695,0.0769,0.0901,0.1009,0.1149,0.1295,0.1406,0.154,0.1665,0.1808,0.1817,0.1558,0.1282,0.0875,0.0649,0.0296,0.036,0.0244,0.0108,0.0044,-0.0036,0.0311,0.03,0.03,0.03,0.03,0.03,0.072,0.0782,0.0878,0.1005,0.1136,0.1312,0.1444,0.1619,0.1819,0.2032,0.2026,0.2073,0.1673,0.1122,0.0807,0.0287,0.0271,0.0131,0.0064,0.0012,-0.0059,0.0289,0.0251,0.0251,0.0251,0.0251,0.0251,0,0.0794,0.0865,0.0983,0.1143,0.1299,0.1353,0.159,0.1742,0.1987,0.217,0.2293,0.2117,0.1633,0.1113,0.0416,0.0065,-0.0094,-0.0111,-0.0197,-0.0239,0.0071,0.0066,-0.0003,-0.0003,-0.0003,-0.0003,-0.0002,-0.0002,0.0843,0.0955,0.101,0.1256,0.1377,0.1594,0.1733,0.195,0.211,0.234,0.238,0.2382,0.2028,0.0811,0.002,-0.0168,-0.0395,-0.0458,-0.0566,-0.0349,-0.0332,-0.0315,-0.0335,-0.0487,-0.0488,-0.0847,-0.0851,-0.0854]}],[{"header":{"parameterUnit":"m.s-1","parameterCategory":2,"la1":30.2991,"la2":30.254,"lo1":-89.0895,"lo2":-89.0444,"dy":0.0017,"dx":0.0017,"nx":28,"ny":28,"refTime":"2025-04-17T21:00:00:Z","depth":"2","parameterNumber":2,"parameterNumberName":"U-component_of_CURRENTS"},"data":[0,0,0,0,0,0,0,0,0,0,0,0,0,0,0,0,0,0,0,0,0,0,0,0,0,0,0,0,0,0,0,0,0,0,0,0,0,0,0,0,0,0,0,0,0,0,0,0,0,0,0,0,0,0,0,0,0,0,0.2507,0.2507,0,0.2528,0.2529,0.2529,0.2528,0.2528,0.2528,0.2528,0.2533,0.2533,0.2534,0,0,0,0,0,0,0,0,0,0,0,0,0,0.2483,0.2483,0.2507,0.2507,0.2507,0.2528,0.2529,0.2529,0.2528,0.2528,0.2528,0.2528,0.2533,0.2533,0.2534,0,0,0,0,0,0,0,0,0,0,0,0,0,0.2496,0.2483,0.2507,0.2511,0.2512,0.2528,0.2529,0.2529,0.2528,0.2528,0.2528,0.2528,0.2533,0.2533,0.2534,0.2541,0,0,0.2535,0.2535,0,0,0,0,0,0,0,0,0.2496,0.2497,0.251,0.2511,0.2511,0.2527,0.2522,0.2533,0.2528,0.252,0.2528,0.2527,0.2531,0.2531,0.2534,0.2541,0.2542,0.2535,0.2535,0.2536,0.2536,0,0,0,0,0,0,0,0.2495,0.2496,0.2514,0.251,0.2511,0.2518,0.2519,0.2524,0.2525,0.2521,0.2521,0.2526,0.2531,0.2534,0.2534,0.2542,0.2535,0.2536,0.2536,0.2536,0.2589,0.259,0,0,0,0,0,0,0.2494,0.2495,0.2513,0.2515,0.2505,0.2519,0.252,0.2521,0.2525,0.2526,0.2527,0.2526,0.2533,0.2534,0.2534,0.2565,0.2536,0.2536,0.2536,0.2588,0.2589,0.259,0,0,0,0,0,0,0.2494,0.2496,0.2512,0.2507,0.251,0.252,0.252,0.2521,0.253,0.253,0.253,0.2535,0.2533,0.2534,0.2549,0.2564,0.2536,0.2537,0.2586,0.2588,0.259,0.2613,0,0,0,0,0,0,0.2493,0.2495,0.2499,0.2507,0.251,0.2527,0.2521,0.2522,0.2534,0.2534,0.2537,0.2537,0.2533,0.2549,0.255,0.2564,0.2537,0.2585,0.2587,0.2589,0.2611,0.2615,0.2619,0,0,0,0,0,0.2492,0.2497,0.2498,0.2501,0.2513,0.2527,0.2529,0.2535,0.2535,0.2541,0.2547,0.2537,0.2563,0.255,0.2551,0.2566,0.2584,0.2587,0.2589,0.2609,0.2614,0.2619,0,0,0,0,0,0,0.2489,0.2498,0.2499,0.2507,0.2519,0.2528,0.2536,0.254,0.255,0.2553,0.2549,0.255,0.2571,0.2568,0.2554,0.259,0.2573,0.2576,0.2588,0.2593,0.2597,0.2616,0.2537,0,0,0,0,0,0.249,0.2495,0.2507,0.2514,0.252,0.253,0.2537,0.2543,0.2553,0.2557,0.2559,0.2567,0.2583,0.2587,0.2597,0.2612,0.2649,0.2625,0.2629,0.2633,0.2651,0.2719,0.2731,0.2599,0.2599,0.2599,0,0,0.2491,0.2497,0.25,0.2514,0.2522,0.2537,0.2533,0.2549,0.2565,0.2556,0.2575,0.2582,0.2592,0.2613,0.2622,0.261,0.2692,0.2636,0.2639,0.2655,0.2723,0.2736,0.2748,0.2601,0.26,0.26,0,0,0.2496,0.2501,0.2509,0.252,0.2538,0.2548,0.2554,0.2568,0.2577,0.2596,0.26,0.2622,0.2631,0.2647,0.2656,0.2692,0.2714,0.269,0.2722,0.2788,0.28,0.281,0.2882,0.2899,0.2689,0.2689,0.2689,0,0.2499,0.2508,0.2514,0.2527,0.2542,0.2554,0.2571,0.2584,0.2601,0.2623,0.2606,0.2656,0.2652,0.27,0.2707,0.2701,0.2747,0.2698,0.2794,0.2805,0.2816,0.2887,0.2905,0.269,0.269,0.269,0.269,0,0.2508,0.2521,0.2528,0.2548,0.2565,0.2583,0.2603,0.2624,0.2635,0.2655,0.2702,0.2705,0.2744,0.2737,0.2729,0.2802,0.2814,0.2794,0.2781,0.2831,0.2902,0.2921,0.2692,0.2692,0.2691,0.2691,0,0,0.25,0.253,0.2532,0.2551,0.2579,0.2596,0.2629,0.2672,0.2721,0.2726,0.2795,0.2797,0.2816,0.2829,0.2827,0.2866,0.2968,0.2861,0.2864,0.2933,0.3132,0.3039,0.305,0.2967,0.297,0.2973,0.3155,0,0.2508,0.2535,0.2549,0.2585,0.2604,0.2633,0.2674,0.2716,0.2756,0.2827,0.2845,0.2909,0.2847,0.2887,0.2913,0.2975,0.3018,0.2922,0.3074,0.3079,0.299,0.3069,0.2797,0.2927,0.3173,0.3177,0.3179,0,0.2507,0.2532,0.2562,0.262,0.2634,0.266,0.2743,0.2786,0.2882,0.2924,0.2982,0.3017,0.3093,0.3031,0.3145,0.3092,0.3116,0.3139,0.3146,0.3066,0.302,0.2916,0.2952,0.321,0.3208,0.3206,0.3203,0,0.2493,0.2539,0.2566,0.2581,0.2648,0.2678,0.2726,0.2815,0.2875,0.301,0.3084,0.3163,0.3236,0.3276,0.3298,0.3253,0.3424,0.3372,0.3308,0.3302,0.3104,0.3075,0.3451,0.3451,0.345,0.345,0.3449,0,0.2489,0.2513,0.2564,0.258,0.264,0.2689,0.2776,0.2842,0.2963,0.3056,0.3141,0.3226,0.3301,0.3386,0.3383,0.3412,0.3497,0.3344,0.3349,0.3103,0.3073,0.3334,0.3318,0.3457,0.3455,0.3454,0.3453,0,0.2466,0.2492,0.2534,0.2606,0.2629,0.2678,0.2788,0.286,0.2986,0.3117,0.3174,0.3325,0.3442,0.3491,0.3594,0.3526,0.3563,0.3539,0.3247,0.3212,0.3384,0.3367,0.3524,0.3522,0.3521,0.3519,0.3518,0,0.2455,0.2473,0.2542,0.2569,0.2599,0.2677,0.2734,0.2855,0.2932,0.3152,0.3213,0.3387,0.3452,0.3579,0.353,0.3545,0.3576,0.3281,0.3121,0.3405,0.3395,0.338,0.3366,0.2885,0.2879,0.2874,0.287,0,0.2454,0.2476,0.2515,0.2569,0.2617,0.2667,0.2753,0.2806,0.2963,0.3072,0.321,0.3289,0.3409,0.33,0.3322,0.3274,0.3257,0.3179,0.3589,0.2888,0.2812,0.2798,0.2804,0.2826,0.283,0.2833,0.2836,0.2838,0.2464,0.2483,0.2532,0.2577,0.2619,0.2637,0.265,0.2744,0.2832,0.2931,0.3071,0.3083,0.3105,0.2997,0.29,0.2828,0.3047,0.2883,0.2896,0.2914,0.2786,0.2709,0.2683,0.2686,0.2689,0.2692,0.2694,0,0.2474,0.2496,0.2538,0.2565,0.2571,0.2617,0.2648,0.2625,0.2669,0.2748,0.2805,0.256,0.2494,0.2518,0.2344,0.2329,0.2269,0.222,0.212,0.2168,0.221,0.2041,0.1743,0.174,0.1736,0.1733,0,0,0.2488,0.2505,0.251,0.2504,0.2527,0.2506,0.2497,0.2437,0.2437,0.2349,0.2301,0.2427,0.2486,0.2098,0.2036,0.1869,0.2,0.1788,0.2562,0.2498,0.2536,0.2617,0.2416,0,0,0,0,0]},{"header":{"parameterUnit":"m.s-1","parameterCategory":2,"la1":30.2991,"la2":30.254,"lo1":-89.0895,"lo2":-89.0444,"dy":0.0017,"dx":0.0017,"nx":28,"ny":28,"refTime":"2025-04-17T21:00:00:Z","depth":"2","parameterNumber":3,"parameterNumberName":"V-component_of_CURRENTS"},"data":[0,0,0,0,0,0,0,0,0,0,0,0,0,0,0,0,0,0,0,0,0,0,0,0,0,0,0,0,0,0,0,0,0,0,0,0,0,0,0,0,0,0,0,0,0,0,0,0,0,0,0,0,0,0,0,0,0,0,0.022,0.022,0,0.0199,0.0198,0.0198,0.0177,0.0177,0.0177,0.0176,0.011,0.0109,0.0107,0,0,0,0,0,0,0,0,0,0,0,0,0,0.0201,0.0201,0.022,0.022,0.022,0.0199,0.0198,0.0198,0.0177,0.0177,0.0177,0.0176,0.0111,0.0109,0.0107,0,0,0,0,0,0,0,0,0,0,0,0,0,0.0196,0.0202,0.022,0.0207,0.0206,0.0199,0.0198,0.0198,0.0177,0.0177,0.0177,0.0176,0.0112,0.0109,0.0107,0.0098,0,0,0.01,0.0099,0,0,0,0,0,0,0,0,0.0197,0.0197,0.0209,0.0208,0.0207,0.0191,0.0167,0.0163,0.0177,0.0187,0.0176,0.0176,0.0134,0.013,0.0126,0.0095,0.0092,0.01,0.0098,0.0097,0.0096,0,0,0,0,0,0,0,0.0197,0.0198,0.0211,0.0209,0.0208,0.0188,0.0188,0.0166,0.0161,0.0186,0.0185,0.0184,0.0133,0.0128,0.0124,0.0091,0.01,0.0098,0.0096,0.0095,0.0057,0.0058,0,0,0,0,0,0,0.0204,0.0198,0.0211,0.021,0.0202,0.0189,0.0188,0.0196,0.0162,0.0157,0.0184,0.0183,0.0132,0.0127,0.0122,0.0129,0.0097,0.0095,0.0094,0.0057,0.0057,0.0058,0,0,0,0,0,0,0.0204,0.0206,0.0212,0.0204,0.0203,0.019,0.0198,0.0195,0.0195,0.0161,0.0155,0.0188,0.0132,0.0125,0.0115,0.0126,0.0094,0.0092,0.0056,0.0057,0.0058,0.0131,0,0,0,0,0,0,0.0204,0.0206,0.0212,0.0205,0.0204,0.0218,0.0198,0.0195,0.0195,0.0194,0.0162,0.0156,0.0131,0.0119,0.0112,0.0122,0.009,0.0056,0.0057,0.0057,0.0128,0.0135,0.014,0,0,0,0,0,0.0203,0.0216,0.0213,0.0214,0.0213,0.0219,0.0217,0.0205,0.0196,0.0203,0.0183,0.0157,0.0119,0.0117,0.011,0.0119,0.0056,0.0056,0.0057,0.0126,0.0133,0.014,0,0,0,0,0,0,0.021,0.0215,0.0211,0.0224,0.0226,0.0216,0.0219,0.0212,0.0202,0.0198,0.0165,0.0158,0.0152,0.0125,0.0124,0.0109,0.0081,0.0081,0.0136,0.0142,0.0148,0.0162,0.0088,0,0,0,0,0,0.0215,0.0226,0.0227,0.0237,0.024,0.023,0.023,0.0225,0.0215,0.0211,0.019,0.0165,0.0149,0.0139,0.0118,0.0112,0.0086,0.011,0.0116,0.0121,0.0127,0.0103,0.0107,0.0061,0.0061,0.0061,0,0,0.0219,0.0224,0.023,0.0239,0.0237,0.0253,0.0229,0.0235,0.0248,0.0204,0.0211,0.0185,0.0152,0.0148,0.0142,0.0127,0.0122,0.0122,0.0127,0.013,0.0104,0.0109,0.0113,0.0062,0.0061,0.0061,0,0,0.0239,0.024,0.0258,0.0265,0.027,0.0268,0.0274,0.027,0.0268,0.0271,0.0244,0.0229,0.0201,0.0185,0.0172,0.0194,0.0153,0.0182,0.0222,0.0199,0.0203,0.0206,0.0185,0.0186,0.0184,0.0184,0.0184,0,0.0244,0.0271,0.0263,0.0284,0.0298,0.0281,0.0308,0.0304,0.0298,0.0303,0.0281,0.0253,0.0221,0.0223,0.0227,0.0208,0.0187,0.0202,0.0207,0.021,0.0212,0.019,0.0189,0.0188,0.0188,0.0187,0.0187,0,0.0281,0.0302,0.0314,0.0339,0.0351,0.0371,0.0371,0.0377,0.0368,0.0364,0.0362,0.0322,0.0306,0.0291,0.0264,0.0265,0.0244,0.022,0.0194,0.0221,0.0196,0.0194,0.0193,0.0192,0.0191,0.019,0,0,0.0298,0.0334,0.0339,0.0368,0.0385,0.0405,0.0424,0.0445,0.0474,0.0442,0.0474,0.0425,0.04,0.0382,0.0346,0.0321,0.0311,0.0279,0.0276,0.0266,0.0262,0.0224,0.0218,0.0287,0.0288,0.0288,0.0241,0,0.0332,0.039,0.0396,0.0453,0.0489,0.0486,0.052,0.0532,0.0531,0.0554,0.0504,0.052,0.0436,0.0444,0.0398,0.0347,0.0309,0.0326,0.0231,0.0228,0.0197,0.0216,0.0221,0.0178,0.024,0.0239,0.0239,0,0.037,0.041,0.0474,0.0537,0.0553,0.0582,0.064,0.067,0.0684,0.0687,0.0667,0.0634,0.06,0.053,0.0424,0.044,0.0351,0.0295,0.0292,0.023,0.0187,0.0158,0.0172,0.0236,0.0236,0.0236,0.0236,0,0.0403,0.0465,0.0523,0.0543,0.0607,0.0638,0.0676,0.071,0.0766,0.0783,0.0828,0.075,0.0756,0.0623,0.0482,0.0461,0.0366,0.0324,0.0201,0.0197,0.0168,0.0162,0.0238,0.0238,0.0238,0.0238,0.0238,0,0.0446,0.0492,0.0546,0.0582,0.0674,0.0697,0.0797,0.0819,0.0886,0.098,0.0906,0.0958,0.0782,0.07,0.0532,0.0366,0.0395,0.0213,0.0184,0.0194,0.019,0.0211,0.0209,0.0236,0.0237,0.0237,0.0237,0,0.0477,0.0506,0.0584,0.0661,0.0693,0.0765,0.0892,0.0974,0.1021,0.1143,0.1165,0.1131,0.1028,0.0828,0.064,0.0464,0.0293,0.0219,0.0242,0.0215,0.0125,0.0127,0.0085,0.0084,0.0082,0.0081,0.008,0,0.05,0.0544,0.0646,0.0711,0.075,0.0862,0.0959,0.1038,0.1141,0.1256,0.133,0.1274,0.1231,0.0927,0.0628,0.0331,0.0292,0.0138,0.0086,0.0134,0.011,0.0114,0.0118,0.008,0.0079,0.0078,0.0077,0,0.0558,0.0589,0.0659,0.0791,0.0894,0.1025,0.1162,0.1258,0.138,0.1479,0.1579,0.1549,0.1277,0.0976,0.0571,0.0362,0.0181,0.0113,0.0171,0.0115,0.0124,0.0102,0.0107,0.0071,0.0071,0.0072,0.0072,0.0073,0.0605,0.0665,0.0759,0.0884,0.1012,0.1169,0.1279,0.1438,0.1603,0.1737,0.1717,0.1667,0.1337,0.08,0.0466,0.0128,0.0148,0.0003,0.0007,0.0012,0.0016,0.0022,-0.0049,-0.0049,-0.0049,-0.0049,-0.0049,0,0.0667,0.0737,0.0853,0.0999,0.1133,0.1209,0.1409,0.152,0.1713,0.1809,0.1856,0.1504,0.1171,0.0807,0.0307,-0.0003,-0.0028,-0.0112,-0.0069,-0.0061,-0.0053,-0.0051,-0.0135,-0.0136,-0.0137,-0.0138,0,0,0.0708,0.0803,0.0855,0.1063,0.119,0.1394,0.1509,0.1662,0.1761,0.1821,0.1786,0.1682,0.1255,0.0865,0.0451,0.0174,0.0125,0.0103,0.0203,0.0311,0.0322,0.0039,0.0055,0,0,0,0,0]}],[{"header":{"parameterUnit":"m.s-1","parameterCategory":2,"la1":30.2991,"la2":30.254,"lo1":-89.0895,"lo2":-89.0444,"dy":0.0017,"dx":0.0017,"nx":28,"ny":28,"refTime":"2025-04-17T21:00:00:Z","depth":"4","parameterNumber":2,"parameterNumberName":"U-component_of_CURRENTS"},"data":[0,0,0,0,0,0,0,0,0,0,0,0,0,0,0,0,0,0,0,0,0,0,0,0,0,0,0,0,0,0,0,0,0,0,0,0,0,0,0,0,0,0,0,0,0,0,0,0,0,0,0,0,0,0,0,0,0,0,0.1572,0.1573,0,0.1629,0.163,0.163,0.1686,0.1687,0.1687,0.1688,0.1771,0.1772,0.1773,0,0,0,0,0,0,0,0,0,0,0,0,0,0.1515,0.1515,0.1572,0.1573,0.1574,0.1629,0.163,0.163,0.1686,0.1687,0.1688,0.1689,0.177,0.1772,0.1773,0,0,0,0,0,0,0,0,0,0,0,0,0,0.1551,0.1515,0.1572,0.1609,0.1613,0.1629,0.163,0.1631,0.1685,0.1687,0.1688,0.1689,0.177,0.1772,0.1774,0.1761,0,0,0.178,0.1781,0,0,0,0,0,0,0,0,0.1549,0.1553,0.1603,0.1606,0.1611,0.1653,0.164,0.1676,0.1685,0.1656,0.1688,0.169,0.1733,0.1739,0.1744,0.1765,0.1769,0.178,0.1782,0.1782,0.1783,0,0,0,0,0,0,0,0.1546,0.1551,0.1593,0.1603,0.1608,0.1624,0.1631,0.1647,0.1687,0.1659,0.1664,0.1672,0.1736,0.1742,0.1747,0.177,0.178,0.1782,0.1783,0.1784,0.1901,0.1903,0,0,0,0,0,0,0.154,0.1548,0.1591,0.1595,0.1584,0.1624,0.1631,0.1637,0.1686,0.1695,0.167,0.1674,0.1738,0.1744,0.175,0.1836,0.1782,0.1784,0.1786,0.1899,0.1901,0.1903,0,0,0,0,0,0,0.1539,0.1544,0.1589,0.1574,0.1581,0.1624,0.163,0.1637,0.168,0.1695,0.1704,0.171,0.1739,0.1747,0.18,0.1836,0.1785,0.1787,0.1897,0.19,0.1902,0.1945,0,0,0,0,0,0,0.1537,0.1542,0.1562,0.1574,0.1582,0.1619,0.1629,0.1638,0.1682,0.1688,0.1731,0.1738,0.1741,0.1797,0.1802,0.1838,0.1789,0.1895,0.1898,0.1901,0.1941,0.1948,0.1955,0,0,0,0,0,0.1535,0.1549,0.1562,0.1569,0.1601,0.162,0.1627,0.166,0.1683,0.1703,0.174,0.1738,0.1823,0.18,0.1806,0.1843,0.1893,0.1897,0.1901,0.1938,0.1947,0.1955,0,0,0,0,0,0,0.1537,0.1556,0.1571,0.1593,0.1616,0.1631,0.1658,0.1678,0.1722,0.1742,0.1757,0.1766,0.1826,0.183,0.1805,0.1888,0.1859,0.1865,0.1885,0.1894,0.1901,0.1907,0.1791,0,0,0,0,0,0.1544,0.1562,0.158,0.1603,0.1617,0.1644,0.1665,0.1687,0.1718,0.1741,0.1771,0.1808,0.184,0.1865,0.189,0.1932,0.1942,0.1963,0.197,0.1976,0.1986,0.2037,0.205,0.1917,0.1917,0.1917,0,0,0.1552,0.1566,0.1579,0.1606,0.1629,0.1652,0.1661,0.17,0.1733,0.1741,0.1808,0.1834,0.1858,0.1908,0.1935,0.1921,0.2017,0.1981,0.1985,0.1993,0.2043,0.2056,0.2067,0.192,0.1919,0.1919,0,0,0.1564,0.1591,0.1607,0.1629,0.1668,0.1682,0.1701,0.1737,0.1773,0.1826,0.1847,0.1898,0.1944,0.1971,0.1987,0.2049,0.2052,0.2064,0.2106,0.2156,0.2167,0.2177,0.2195,0.2206,0.2068,0.2069,0.2069,0,0.1579,0.1596,0.1617,0.1638,0.1662,0.1699,0.1724,0.176,0.1814,0.185,0.1858,0.1954,0.1973,0.2037,0.2063,0.2065,0.2086,0.2068,0.2164,0.2174,0.2184,0.22,0.2212,0.2071,0.2071,0.2071,0.207,0,0.1589,0.162,0.1634,0.1671,0.1699,0.173,0.1772,0.1821,0.1868,0.1904,0.1991,0.2022,0.2083,0.2096,0.2099,0.2182,0.2171,0.2164,0.2138,0.2199,0.2213,0.2224,0.2075,0.2074,0.2073,0.2072,0,0,0.1578,0.1631,0.1641,0.1661,0.1722,0.1738,0.1807,0.1868,0.1924,0.1989,0.206,0.2124,0.216,0.2183,0.2201,0.2243,0.232,0.224,0.2241,0.2251,0.242,0.2248,0.2244,0.2336,0.2339,0.2341,0.2398,0,0.1586,0.1619,0.1652,0.1698,0.1715,0.1777,0.1831,0.1899,0.1968,0.2047,0.211,0.2184,0.2188,0.223,0.2278,0.2319,0.2355,0.2304,0.2366,0.2368,0.2202,0.2253,0.2349,0.2406,0.2409,0.2411,0.2412,0,0.158,0.1603,0.1644,0.1704,0.1721,0.1763,0.1859,0.1916,0.2035,0.2095,0.2191,0.2244,0.2341,0.2322,0.2432,0.2406,0.2422,0.2436,0.2439,0.2273,0.2218,0.2337,0.2433,0.2431,0.2429,0.2428,0.2427,0,0.1534,0.1596,0.1627,0.1649,0.1724,0.1772,0.1827,0.1939,0.2005,0.2143,0.2211,0.2322,0.2395,0.2451,0.2493,0.2483,0.2583,0.2567,0.2422,0.2409,0.2528,0.2516,0.263,0.263,0.263,0.263,0.263,0,0.1506,0.1534,0.1614,0.1627,0.1679,0.1749,0.1835,0.191,0.204,0.2113,0.2242,0.2311,0.2437,0.2505,0.2524,0.2503,0.2614,0.2435,0.2418,0.2542,0.2532,0.2535,0.2523,0.2632,0.2632,0.2631,0.2631,0,0.1442,0.1498,0.1536,0.1624,0.1656,0.1697,0.1828,0.1886,0.2025,0.2129,0.2181,0.2343,0.2427,0.2504,0.2588,0.2525,0.2526,0.2483,0.2602,0.2589,0.2313,0.2303,0.2338,0.2332,0.2327,0.2324,0.232,0,0.1407,0.142,0.1516,0.1546,0.1593,0.1673,0.1724,0.1864,0.1927,0.2119,0.215,0.2294,0.2375,0.2365,0.2454,0.2466,0.2435,0.2413,0.2368,0.2306,0.2287,0.2284,0.2281,0.2313,0.2312,0.2311,0.2309,0,0.1333,0.1386,0.1415,0.1466,0.1524,0.159,0.1678,0.1708,0.186,0.2008,0.2076,0.2126,0.2207,0.2268,0.2284,0.2289,0.242,0.2364,0.2374,0.2332,0.2277,0.2261,0.2263,0.2293,0.2296,0.2297,0.2298,0,0.1281,0.1288,0.133,0.1368,0.1442,0.1477,0.1537,0.1602,0.1679,0.1879,0.1894,0.2042,0.2181,0.2175,0.2193,0.2182,0.2157,0.2085,0.2108,0.2127,0.203,0.1927,0.1827,0,0,0,0,0,0.1216,0.1205,0.1228,0.1256,0.1327,0.1366,0.1488,0.1555,0.1695,0.1692,0.179,0.1851,0.1903,0.1987,0.1935,0.2094,0.2156,0.2022,0.2083,0.2204,0.2223,0.2126,0,0,0,0,0,0,0.1171,0.1178,0.118,0.1154,0.1157,0.1213,0.1286,0.1381,0.1395,0.1555,0.1601,0.1727,0.1813,0.1907,0.1895,0.1916,0.1912,0.2116,0.2111,0.2194,0.2211,0.2226,0.2133,0,0,0,0,0]},{"header":{"parameterUnit":"m.s-1","parameterCategory":2,"la1":30.2991,"la2":30.254,"lo1":-89.0895,"lo2":-89.0444,"dy":0.0017,"dx":0.0017,"nx":28,"ny":28,"refTime":"2025-04-17T21:00:00:Z","depth":"4","parameterNumber":3,"parameterNumberName":"V-component_of_CURRENTS"},"data":[0,0,0,0,0,0,0,0,0,0,0,0,0,0,0,0,0,0,0,0,0,0,0,0,0,0,0,0,0,0,0,0,0,0,0,0,0,0,0,0,0,0,0,0,0,0,0,0,0,0,0,0,0,0,0,0,0,0,0.0066,0.0066,0,0.0053,0.0053,0.0052,0.004,0.004,0.004,0.004,-0.0011,-0.0013,-0.0014,0,0,0,0,0,0,0,0,0,0,0,0,0,0.0052,0.0052,0.0066,0.0066,0.0066,0.0053,0.0053,0.0052,0.004,0.004,0.004,0.004,-0.0011,-0.0013,-0.0014,0,0,0,0,0,0,0,0,0,0,0,0,0,0.005,0.0052,0.0066,0.0058,0.0058,0.0053,0.0053,0.0052,0.004,0.004,0.004,0.004,-0.0011,-0.0012,-0.0014,-0.0023,0,0,-0.002,-0.0021,0,0,0,0,0,0,0,0,0.005,0.005,0.006,0.0059,0.0058,0.0048,0.0029,0.0025,0.004,0.0046,0.004,0.004,0.0005,0.0002,-0.0,-0.0026,-0.0028,-0.002,-0.0021,-0.0022,-0.0023,0,0,0,0,0,0,0,0.005,0.0051,0.006,0.0059,0.0059,0.0046,0.0046,0.0028,0.0026,0.0046,0.0045,0.0044,0.0005,0.0002,-0.0002,-0.0029,-0.002,-0.0022,-0.0023,-0.0024,-0.0053,-0.0053,0,0,0,0,0,0,0.0055,0.0051,0.006,0.006,0.0054,0.0047,0.0046,0.0051,0.0027,0.0023,0.0045,0.0044,0.0005,0.0001,-0.0003,0.0006,-0.0022,-0.0024,-0.0025,-0.0054,-0.0053,-0.0053,0,0,0,0,0,0,0.0055,0.0056,0.0061,0.0055,0.0055,0.0047,0.0053,0.0051,0.0052,0.0026,0.0022,0.0048,0.0005,-0.0001,-0.0009,0.0003,-0.0025,-0.0027,-0.0054,-0.0053,-0.0053,0.0011,0,0,0,0,0,0,0.0054,0.0056,0.006,0.0056,0.0055,0.0066,0.0053,0.0051,0.0052,0.0051,0.0028,0.0023,0.0004,-0.0005,-0.001,0.0,-0.0028,-0.0055,-0.0054,-0.0053,0.0009,0.0014,0.0019,0,0,0,0,0,0.0054,0.0062,0.0061,0.0062,0.0062,0.0066,0.0065,0.0058,0.0053,0.0058,0.0044,0.0024,-0.0005,-0.0006,-0.0012,-0.0002,-0.0055,-0.0054,-0.0053,0.0007,0.0013,0.0019,0,0,0,0,0,0,0.0056,0.0061,0.006,0.0068,0.0071,0.0065,0.0067,0.0063,0.0057,0.0054,0.003,0.0024,0.0021,-0.0001,-0.0002,-0.001,-0.0034,-0.0035,0.0013,0.0019,0.0024,0.0035,-0.003,0,0,0,0,0,0.006,0.0068,0.007,0.0077,0.0079,0.0074,0.0074,0.0072,0.0066,0.0063,0.0048,0.003,0.0019,0.0012,-0.0005,-0.0008,-0.0039,-0.0007,-0.0002,0.0003,0.0007,-0.0021,-0.0018,-0.005,-0.005,-0.005,0,0,0.0062,0.0066,0.007,0.0078,0.0077,0.009,0.0074,0.0079,0.0092,0.0057,0.0066,0.0046,0.0021,0.0021,0.0017,0.0005,-0.0007,0.0004,0.0008,0.0009,-0.002,-0.0016,-0.0014,-0.0049,-0.005,-0.005,0,0,0.0073,0.0076,0.0088,0.0095,0.01,0.0101,0.0106,0.0105,0.0107,0.0111,0.0092,0.0083,0.0062,0.0053,0.0044,0.0064,0.0019,0.0054,0.009,0.0064,0.0066,0.0068,0.0024,0.0021,0.0058,0.0058,0.0058,0,0.0076,0.0095,0.0091,0.0107,0.0118,0.011,0.0131,0.0132,0.013,0.0135,0.0121,0.0101,0.0079,0.0084,0.0092,0.0076,0.0045,0.0072,0.0071,0.0072,0.0073,0.0027,0.0023,0.0061,0.0061,0.0061,0.006,0,0.0099,0.0116,0.0124,0.0146,0.0156,0.0172,0.0178,0.0188,0.0186,0.0183,0.0185,0.0158,0.0147,0.0139,0.0122,0.0123,0.0093,0.008,0.0059,0.008,0.003,0.0025,0.0066,0.0065,0.0064,0.0063,0,0,0.0104,0.0135,0.014,0.016,0.0181,0.0193,0.0218,0.0238,0.0256,0.0244,0.0259,0.0241,0.0222,0.021,0.0186,0.0165,0.0142,0.013,0.0127,0.0091,0.0068,0.0048,0.004,0.0129,0.0129,0.0129,0.0027,0,0.0127,0.0167,0.0177,0.022,0.0244,0.0252,0.0282,0.0296,0.0296,0.0306,0.0282,0.0282,0.0251,0.0247,0.0223,0.0164,0.0133,0.017,0.0048,0.0044,0.0029,0.0036,0.0128,0.0023,0.0022,0.0021,0.002,0,0.0149,0.0177,0.0222,0.0269,0.0281,0.0307,0.0349,0.0372,0.0383,0.0381,0.0372,0.0346,0.0323,0.029,0.02,0.0223,0.0152,0.01,0.0094,0.0052,0.0016,-0.0002,0.0011,0.0012,0.0012,0.0013,0.0013,0,0.0161,0.0209,0.0249,0.0265,0.0315,0.0341,0.0371,0.0395,0.0425,0.0427,0.0437,0.0396,0.0379,0.0296,0.0187,0.0193,0.0071,0.0064,-0.0025,-0.0028,-0.0009,-0.001,-0.0005,-0.0005,-0.0005,-0.0004,-0.0004,0,0.0185,0.0217,0.026,0.0284,0.0342,0.0367,0.0426,0.0444,0.0477,0.0511,0.0477,0.0481,0.038,0.0299,0.0196,0.0066,0.0073,-0.002,-0.005,0.0018,0.0021,-0.0014,-0.0014,-0.0008,-0.0007,-0.0007,-0.0006,0,0.0193,0.0221,0.027,0.0327,0.035,0.0392,0.0471,0.0511,0.0535,0.0574,0.0579,0.054,0.0439,0.0314,0.0166,0.0081,-0.0044,-0.0098,-0.0031,-0.0056,-0.013,-0.0125,-0.0194,-0.0196,-0.0197,-0.0198,-0.0199,0,0.0199,0.0224,0.0294,0.0331,0.036,0.0428,0.0483,0.0536,0.0577,0.0607,0.0623,0.055,0.0501,0.0287,0.0145,-0.0063,-0.0091,-0.0165,-0.0128,-0.0124,-0.0147,-0.014,-0.0134,-0.0201,-0.0201,-0.0201,-0.0202,0,0.0207,0.023,0.027,0.0341,0.0401,0.0483,0.0556,0.0596,0.0655,0.067,0.0669,0.0573,0.0454,0.0293,0.0122,-0.0025,-0.0116,-0.0178,-0.0176,-0.0141,-0.0133,-0.0153,-0.0145,-0.0206,-0.0205,-0.0205,-0.0205,0,0.0205,0.0233,0.028,0.0349,0.0426,0.0516,0.0563,0.0621,0.0672,0.0706,0.0695,0.0586,0.0523,0.031,0.0153,0.0006,-0.0022,-0.0064,-0.0068,-0.0065,0.0004,0.0036,-0.001,0,0,0,0,0,0.0202,0.0235,0.0286,0.0371,0.045,0.0505,0.0601,0.0645,0.0698,0.0706,0.0711,0.0605,0.0405,0.0322,0.0174,0.0111,-0.0069,-0.0071,-0.0125,-0.0229,-0.0224,-0.0165,0,0,0,0,0,0,0.0201,0.0241,0.0276,0.0373,0.0439,0.0538,0.0609,0.065,0.0663,0.0691,0.0593,0.0557,0.0361,0.0488,0.0167,0.0122,0.0066,-0.0161,-0.0165,-0.0231,-0.0227,-0.0223,-0.0161,0,0,0,0,0]}]]